Weather History for Riverton, WY

Change the Weather History Date:

Monday, February 3, 2014

  Actual Average Record
Temperature  
Mean Temperature 16 °F 21 °F  
Max Temperature 27 °F 32 °F 48 °F (2009)
Min Temperature 5 °F 10 °F -18 °F (1996)
Degree Days  
Heating Degree Days 49 44  
Month to date heating degree days 159 132  
Since 1 July heating degree days 4772 4847  
Cooling Degree Days 0 0  
Month to date cooling degree days 0 0  
Year to date cooling degree days 0 0  
Moisture  
Dew Point 5 °F    
Average Humidity 61    
Maximum Humidity 80    
Minimum Humidity 42    
Precipitation  
Precipitation T in 0.00 in 0.01 in (1997)
Month to date precipitation 0.02 0.02  
Year to date precipitation 0.70 0.26  
Snow  
Snow T in - - ()
Month to date snowfall 0.2  
Since 1 July snowfall 44.4  
Snow Depth T in    
Sea Level Pressure  
Sea Level Pressure 29.95 in    
Wind  
Wind Speed 10 mph (NNE)    
Max Wind Speed 26 mph    
Max Gust Speed 33 mph    
Visibility 8 miles    
Events Snow    
T = Trace of Precipitation, MM = Missing Value Source: NWS Daily Summary

Daily Weather History Graph

Daily Weather History Graph

Search for Another Location

Airport:

Trip Planner

Search our weather history database for the weather conditions in past years. The results will help you decide how hot, cold, wet, or windy it might be!

Date:

Astronomy

Feb. 03, 2014 Rise Set
Actual Time 7:26 AM MST 5:29 PM MST
Civil Twilight 6:56 AM MST 5:59 PM MST
Nautical Twilight 6:22 AM MST 6:33 PM MST
Astronomical Twilight 5:49 AM MST 7:06 PM MST
Moon 9:22 AM MST (2/3) 10:32 PM MST (2/3)
Length of Visible Light 11h 02m
Length of Day
10h 02m
Waxing Crescent, 20% of the Moon is Illuminated
Feb 3
Waxing Crescent
Feb 6
First Quarter
Feb 14
Full
Feb 22
Last Quarter
Mar 1
New

Hourly Weather History & Observations

Time (MST) Temp. Windchill Dew Point Humidity Pressure Visibility Wind Dir Wind Speed Gust Speed Precip Events Conditions
12:53 AM 14.0 °F 1.2 °F 3.9 °F 64% 29.97 in 10.0 mi WSW 10.4 mph - N/A   Clear
1:53 AM 12.9 °F 0.7 °F 3.9 °F 67% 29.96 in 10.0 mi West 9.2 mph - N/A   Clear
2:53 AM 10.9 °F 2.9 °F 3.0 °F 70% 29.96 in 10.0 mi WSW 4.6 mph - N/A   Clear
3:53 AM 10.0 °F -1.9 °F 1.9 °F 70% 29.96 in 10.0 mi SW 8.1 mph - N/A   Clear
4:53 AM 9.0 °F -0.9 °F 1.0 °F 70% 29.98 in 10.0 mi West 5.8 mph - N/A   Clear
5:53 AM 6.1 °F -0.9 °F -0.0 °F 76% 30.01 in 10.0 mi NNW 3.5 mph - N/A   Clear
6:53 AM 6.1 °F -4.3 °F -0.0 °F 76% 30.02 in 10.0 mi NNE 5.8 mph - N/A   Clear
7:53 AM 6.1 °F -4.3 °F -0.0 °F 76% 30.06 in 10.0 mi WNW 5.8 mph - N/A   Clear
8:53 AM 9.0 °F - 3.0 °F 77% 30.04 in 10.0 mi Calm Calm - N/A   Clear
9:53 AM 14.0 °F 6.5 °F 5.0 °F 67% 30.03 in 10.0 mi ENE 4.6 mph - N/A   Clear
10:53 AM 18.0 °F 12.7 °F 6.1 °F 60% 30.02 in 10.0 mi NNW 3.5 mph - N/A   Clear
11:53 AM 23.0 °F 17.0 °F 7.0 °F 50% 29.99 in 10.0 mi NNE 4.6 mph - N/A   Clear
12:53 PM 24.1 °F 16.0 °F 7.0 °F 48% 29.94 in 10.0 mi NE 6.9 mph - N/A   Clear
1:53 PM 26.1 °F 17.6 °F 6.1 °F 43% 29.91 in 10.0 mi ENE 8.1 mph - N/A   Clear
2:53 PM 26.1 °F 16.8 °F 6.1 °F 43% 29.90 in 10.0 mi ENE 9.2 mph - N/A   Clear
3:53 PM 27.0 °F 16.7 °F 6.1 °F 41% 29.89 in 10.0 mi ENE 11.5 mph - N/A   Clear
4:53 PM 25.0 °F 14.8 °F 9.0 °F 51% 29.91 in 10.0 mi ENE 10.4 mph - N/A   Clear
5:53 PM 21.0 °F 7.6 °F 10.0 °F 63% 29.92 in 10.0 mi NNE 15.0 mph - N/A   Clear
6:53 PM 17.1 °F 0.6 °F 9.0 °F 71% 29.94 in 10.0 mi NNE 19.6 mph - N/A   Clear
7:53 PM 15.1 °F -1.1 °F 8.1 °F 74% 29.96 in 10.0 mi NNE 17.3 mph - N/A   Clear
8:53 PM 15.1 °F -2.0 °F 9.0 °F 77% 29.97 in 10.0 mi NNE 19.6 mph - N/A   Overcast
9:53 PM 14.0 °F -4.7 °F 8.1 °F 77% 29.97 in 10.0 mi NE 23.0 mph - N/A   Mostly Cloudy
10:53 PM 10.9 °F -6.5 °F 7.0 °F 84% 30.00 in 2.5 mi NE 17.3 mph - 0.00 in Snow Light Snow
11:09 PM 10.0 °F -8.1 °F 6.1 °F 84% 29.81 in 1.5 mi NNE 18.4 mph 25.3 mph 0.00 in Snow Light Snow
11:17 PM 10.0 °F -7.1 °F 6.1 °F 84% 29.82 in 1.2 mi NNE 16.1 mph 25.3 mph 0.00 in Snow Light Snow
11:46 PM 9.0 °F -9.0 °F 6.1 °F 88% 29.83 in 1.5 mi North 17.3 mph - 0.00 in Snow Light Snow
11:53 PM 8.1 °F -9.6 °F 5.0 °F 87% 30.01 in 1.5 mi North 16.1 mph - 0.00 in Snow Light Snow